• In Hungary
  • List of Countries
  • For 7 days
  • Water Temperature
  • Satellite Maps
  • Weather Map
  • News
  • Weather Widgets
  • user-avatar
    Login

    Hourly Weather Belyy Gorodok

    Today, 15 August, Wednesday

    Time Temperature Precipitation Wind Pressure Humidity
    00:00 +14°C° 0 mm 1 mps 749 mmHg 81%
    01:00 +14°C° 0 mm 1 mps 749 mmHg 81%
    02:00 +14°C° 0 mm 1 mps 749 mmHg 81%
    03:00 +14°C° 0 mm 1 mps 749 mmHg 83%
    04:00 +14°C° 0 mm 2 mps 748 mmHg 82%
    05:00 +15°C° 0 mm 2 mps 748 mmHg 82%
    06:00 +15°C° 0 mm 2 mps 748 mmHg 81%
    07:00 +17°C° 0 mm 3 mps 748 mmHg 77%
    08:00 +19°C° 0 mm 3 mps 747 mmHg 73%
    09:00 +21°C° 0 mm 3 mps 747 mmHg 68%
    10:00 +22°C° 0 mm 4 mps 746 mmHg 64%
    11:00 +25°C° 0 mm 4 mps 746 mmHg 60%
    12:00 +26°C° 0 mm 4 mps 745 mmHg 56%
    13:00 +25°C° 0.7 mm 4 mps 745 mmHg 64%
    14:00 +23°C° 0.7 mm 4 mps 745 mmHg 73%
    15:00 +21°C° 0 mm 5 mps 745 mmHg 86%
    16:00 +21°C° 0.7 mm 4 mps 745 mmHg 87%
    17:00 +21°C° 0.7 mm 4 mps 745 mmHg 87%
    18:00 +21°C° 0.7 mm 4 mps 745 mmHg 88%
    19:00 +20°C° 0.2 mm 3 mps 745 mmHg 91%
    20:00 +19°C° 0.2 mm 3 mps 745 mmHg 93%
    21:00 +19°C° 0.2 mm 3 mps 745 mmHg 95%
    22:00 +18°C° 0 mm 2 mps 745 mmHg 96%
    23:00 +18°C° 0 mm 2 mps 745 mmHg 97%

    Tomorrow, 16 August, Thursday

    Time Temperature Precipitation Wind Pressure Humidity
    00:00 +17°C° 0 mm 2 mps 746 mmHg 98%
    01:00 +17°C° 0 mm 2 mps 746 mmHg 98%
    02:00 +17°C° 0 mm 2 mps 746 mmHg 98%
    03:00 +17°C° 0 mm 2 mps 747 mmHg 98%
    04:00 +17°C° 0 mm 2 mps 747 mmHg 98%
    05:00 +16°C° 0 mm 2 mps 748 mmHg 97%
    06:00 +16°C° 0 mm 2 mps 748 mmHg 97%
    07:00 +16°C° 0 mm 2 mps 748 mmHg 95%
    08:00 +16°C° 0 mm 2 mps 749 mmHg 93%
    09:00 +17°C° 0 mm 2 mps 749 mmHg 90%
    10:00 +18°C° 0 mm 2 mps 749 mmHg 84%
    11:00 +18°C° 0 mm 2 mps 750 mmHg 77%
    12:00 +19°C° 0 mm 2 mps 750 mmHg 71%
    13:00 +20°C° 0 mm 2 mps 750 mmHg 66%
    14:00 +21°C° 0 mm 3 mps 751 mmHg 61%
    15:00 +22°C° 0 mm 3 mps 751 mmHg 55%
    16:00 +22°C° 0 mm 3 mps 751 mmHg 57%
    17:00 +21°C° 0 mm 3 mps 751 mmHg 59%
    18:00 +21°C° 0 mm 3 mps 752 mmHg 61%
    19:00 +19°C° 0 mm 2 mps 752 mmHg 67%
    20:00 +17°C° 0 mm 2 mps 752 mmHg 74%
    21:00 +15°C° 0 mm 2 mps 753 mmHg 81%
    22:00 +15°C° 0 mm 2 mps 753 mmHg 82%
    23:00 +14°C° 0 mm 2 mps 753 mmHg 84%

    Day after tomorrow, 17 August, Friday

    Time Temperature Precipitation Wind Pressure Humidity
    00:00 +13°C° 0 mm 2 mps 754 mmHg 85%
    01:00 +13°C° 0 mm 1 mps 754 mmHg 86%
    02:00 +12°C° 0 mm 1 mps 754 mmHg 87%
    03:00 +12°C° 0 mm 1 mps 755 mmHg 88%
    04:00 +12°C° 0 mm 1 mps 755 mmHg 88%
    05:00 +12°C° 0 mm 1 mps 755 mmHg 88%
    06:00 +12°C° 0 mm 1 mps 756 mmHg 87%
    07:00 +14°C° 0 mm 1 mps 756 mmHg 78%
    08:00 +16°C° 0 mm 1 mps 756 mmHg 70%
    09:00 +19°C° 0 mm 2 mps 756 mmHg 61%
    10:00 +20°C° 0 mm 2 mps 756 mmHg 55%
    11:00 +21°C° 0 mm 2 mps 756 mmHg 49%
    12:00 +23°C° 0 mm 2 mps 756 mmHg 43%
    13:00 +24°C° 0 mm 2 mps 756 mmHg 42%
    14:00 +24°C° 0 mm 2 mps 756 mmHg 41%
    15:00 +25°C° 0 mm 2 mps 756 mmHg 40%
    16:00 +24°C° 0 mm 2 mps 756 mmHg 44%
    17:00 +24°C° 0 mm 2 mps 756 mmHg 48%
    18:00 +23°C° 0 mm 2 mps 755 mmHg 52%
    19:00 +20°C° 0 mm 2 mps 756 mmHg 58%
    20:00 +18°C° 0 mm 2 mps 756 mmHg 65%
    21:00 +15°C° 0 mm 2 mps 756 mmHg 72%
    22:00 +15°C° 0 mm 1 mps 756 mmHg 74%
    23:00 +14°C° 0 mm 1 mps 756 mmHg 76%

    18 August, Saturday

    Time Temperature Precipitation Wind Pressure Humidity
    00:00 +13°C° 0 mm 1 mps 756 mmHg 79%
    01:00 +13°C° 0 mm 1 mps 756 mmHg 80%
    02:00 +13°C° 0 mm 1 mps 756 mmHg 81%
    03:00 +12°C° 0 mm 1 mps 757 mmHg 83%
    04:00 +12°C° 0 mm 1 mps 757 mmHg 83%
    05:00 +12°C° 0 mm 1 mps 757 mmHg 84%
    06:00 +12°C° 0 mm 1 mps 757 mmHg 84%
    07:00 +14°C° 0 mm 1 mps 757 mmHg 76%
    08:00 +18°C° 0 mm 1 mps 757 mmHg 69%
    09:00 +19°C° 0 mm 2 mps 757 mmHg 61%
    10:00 +21°C° 0 mm 2 mps 757 mmHg 56%
    11:00 +23°C° 0 mm 2 mps 757 mmHg 51%
    12:00 +25°C° 0 mm 2 mps 757 mmHg 46%
    13:00 +25°C° 0 mm 2 mps 757 mmHg 45%
    14:00 +26°C° 0 mm 2 mps 756 mmHg 43%
    15:00 +26°C° 0 mm 2 mps 756 mmHg 41%
    16:00 +26°C° 0 mm 2 mps 756 mmHg 45%
    17:00 +25°C° 0 mm 2 mps 755 mmHg 49%
    18:00 +25°C° 0 mm 2 mps 755 mmHg 52%
    19:00 +23°C° 0 mm 2 mps 755 mmHg 59%
    20:00 +19°C° 0 mm 2 mps 755 mmHg 65%
    21:00 +17°C° 0 mm 2 mps 755 mmHg 72%
    22:00 +16°C° 0 mm 2 mps 755 mmHg 74%
    23:00 +16°C° 0 mm 2 mps 755 mmHg 76%

    19 August, Sunday

    Time Temperature Precipitation Wind Pressure Humidity
    00:00 +15°C° 0 mm 2 mps 755 mmHg 78%
    01:00 +15°C° 0 mm 2 mps 755 mmHg 80%
    02:00 +14°C° 0 mm 2 mps 755 mmHg 81%
    03:00 +14°C° 0 mm 2 mps 755 mmHg 82%
    04:00 +14°C° 0 mm 2 mps 755 mmHg 83%
    05:00 +14°C° 0 mm 2 mps 755 mmHg 83%
    06:00 +14°C° 0 mm 2 mps 755 mmHg 84%
    07:00 +16°C° 0 mm 2 mps 755 mmHg 76%
    08:00 +18°C° 0 mm 3 mps 755 mmHg 69%
    09:00 +21°C° 0 mm 3 mps 754 mmHg 61%
    10:00 +22°C° 0 mm 4 mps 754 mmHg 56%
    11:00 +23°C° 0 mm 4 mps 754 mmHg 50%
    12:00 +26°C° 0 mm 5 mps 753 mmHg 45%
    13:00 +26°C° 0 mm 5 mps 753 mmHg 44%
    14:00 +27°C° 0 mm 5 mps 752 mmHg 43%
    15:00 +27°C° 0 mm 5 mps 752 mmHg 42%
    16:00 +27°C° 0 mm 5 mps 751 mmHg 46%
    17:00 +26°C° 0 mm 4 mps 751 mmHg 49%
    18:00 +25°C° 0 mm 4 mps 750 mmHg 53%
    19:00 +23°C° 0 mm 4 mps 750 mmHg 57%
    20:00 +22°C° 0 mm 4 mps 750 mmHg 60%
    21:00 +20°C° 0 mm 4 mps 750 mmHg 64%
    22:00 +20°C° 0 mm 4 mps 750 mmHg 67%
    23:00 +19°C° 0 mm 4 mps 749 mmHg 71%

    20 August, Monday

    Time Temperature Precipitation Wind Pressure Humidity
    00:00 +19°C° 0 mm 4 mps 749 mmHg 74%
    01:00 +18°C° 0.1 mm 3 mps 749 mmHg 80%
    02:00 +17°C° 0.1 mm 3 mps 749 mmHg 87%
    03:00 +17°C° 0.1 mm 3 mps 749 mmHg 93%
    04:00 +17°C° 0.1 mm 2 mps 749 mmHg 94%
    05:00 +17°C° 0.1 mm 2 mps 749 mmHg 96%
    06:00 +16°C° 0.1 mm 2 mps 749 mmHg 97%
    07:00 +17°C° 0.1 mm 2 mps 750 mmHg 93%
    08:00 +18°C° 0.1 mm 2 mps 750 mmHg 89%
    09:00 +19°C° 0.1 mm 2 mps 750 mmHg 85%
    10:00 +19°C° 0.1 mm 2 mps 750 mmHg 80%
    11:00 +20°C° 0.1 mm 2 mps 750 mmHg 75%
    12:00 +21°C° 0.1 mm 3 mps 750 mmHg 70%
    13:00 +21°C° 0.1 mm 3 mps 750 mmHg 68%
    14:00 +22°C° 0.1 mm 3 mps 750 mmHg 67%
    15:00 +22°C° 0.1 mm 3 mps 750 mmHg 66%
    16:00 +21°C° 0.1 mm 2 mps 750 mmHg 69%
    17:00 +21°C° 0.1 mm 2 mps 750 mmHg 71%
    18:00 +21°C° 0.1 mm 2 mps 750 mmHg 74%
    19:00 +20°C° 0 mm 1 mps 750 mmHg 79%
    20:00 +19°C° 0 mm 1 mps 750 mmHg 84%
    21:00 +16°C° 0 mm 1 mps 750 mmHg 89%
    22:00 +15°C° 0 mm 1 mps 750 mmHg 89%
    23:00 +15°C° 0 mm 1 mps 750 mmHg 90%
    Show more